Volver al catálogo

STARLINK-36446

ActivoComunicacionesVLEO
NORAD 67412·PAYLOAD·🇺🇸 United States

Lanzado Jan 12, 2026 desde Cape Canaveral Space Force Station

Loading…

Próximos Pases (próximas 24 horas)

TLE

ActualizadoSource: CelesTrak SupGP

Época: Sep 14, 2026, 22:35 UTC

1 67412C 26005J   26257.94145833  .00032354  00000+0  11718-2 0  2575
2 67412  43.0026 249.1755 0001283 263.8896 335.2756 15.27563185    11

Sigue STARLINK-36446 en tiempo real con AllMySat

Download on the App Store